This demonstration page uses our WeatherBlox Daily Observations layout. Learn more.

Left ArrowRight Arrow

34.02893, -84.19858

Hourly Observations for February 10, 2020

Temp ( °F °C ) Dew Point ( °F °C ) Humidity (%) Winds ( mph kmh ) Pressure ( in mb ) Visibility ( mi km ) Precip ( " mm )
12:53 am 00:53 Clear with Mist and Fog 37 2.8 35 1.7 93 93 VRB 3 6 30.39 1029 6 10 0.00 0.00
1:53 am 01:53 Partly Cloudy 37 2.8 35 1.7 93 93 E 5 7 30.37 1029 7 11 0.00 0.00
2:53 am 02:53 Clear 37 2.8 35 1.7 93 93 ENE 5 7 30.35 1028 7 11 0.00 0.00
3:53 am 03:53 Clear with Mist and Fog 37 2.8 35 1.7 93 93 NE 3 6 30.33 1027 6 10 0.00 0.00
4:53 am 04:53 Mostly Cloudy 37 2.8 35 1.7 93 93 VRB 3 6 30.29 1026 7 11 0.00 0.00
5:16 am 05:16 Cloudy 38 3.3 35 1.7 89 89 N 10 17 30.36 1028 8 13 0.00 0.00
5:53 am 05:53 Cloudy 38 3.3 35 1.7 89 89 NE 6 9 30.35 1028 10 16 0.00 0.00
6:53 am 06:53 Cloudy 40 4.4 35 1.7 83 83 E 6 9 30.31 1026 10 16 0.00 0.00
7:24 am 07:24 Mostly Cloudy 40 4.4 36 2.2 86 86 Calm 30.32 1027 10 16 0.00 0.00
7:53 am 07:53 Cloudy 41 5 36 2.2 82 82 Calm 30.32 1027 10 16 0.00 0.00
8:53 am 08:53 Cloudy 42 5.6 37 2.8 82 82 VRB 3 6 30.32 1027 10 16 0.00 0.00
9:53 am 09:53 Cloudy 44 6.7 39 3.9 83 83 VRB 3 6 30.30 1026 10 16 0.00 0.00
10:53 am 10:53 Cloudy 46 7.8 40 4.4 79 79 N 6 9 30.32 1027 10 16 0.00 0.00
11:53 am 11:53 Cloudy with Light Rain 45 7.2 41 5 86 86 VRB 3 6 30.30 1026 10 16 0.00 0.00
12:53 pm 12:53 Cloudy with Light Rain 45 7.2 44 6.7 97 97 VRB 3 6 30.26 1025 4 6 0.06 1.52
1:53 pm 13:53 Cloudy with Light Rain 46 7.8 45 7.2 96 96 VRB 3 6 30.22 1024 5 8 0.02 0.51
1:56 pm 13:56 Cloudy with Light Rain 46 7.8 45 7.2 96 96 E 5 7 30.21 1023 4 6 0.01 0.25
2:12 pm 14:12 Cloudy with Light Rain 46 7.8 45 7.2 96 96 VRB 5 7 30.19 1022 3 4 0.03 0.76
2:20 pm 14:20 Cloudy with Light Rain 46 7.8 45 7.2 96 96 E 3 6 30.19 1022 4 6 0.03 0.76
2:53 pm 14:53 Cloudy with Light Rain 47 8.3 46 7.8 97 97 VRB 5 7 30.18 1022 5 8 0.04 1.02
3:53 pm 15:53 Cloudy with Light Rain 47 8.3 47 8.3 100 100 Calm 30.17 1022 3 4 0.04 1.02
4:00 pm 16:00 Cloudy with Light Rain 48 8.9 47 8.3 96 96 E 3 6 30.16 1021 2 3 0.01 0.25
4:07 pm 16:07 Cloudy with Rain 48 8.9 47 8.3 96 96 VRB 3 6 30.16 1021 2 3 0.03 0.76
4:16 pm 16:16 Cloudy with Rain 47 8.3 47 8.3 100 100 E 3 6 30.16 1021 2 3 0.05 1.27
4:23 pm 16:23 Cloudy with Rain 48 8.9 47 8.3 96 96 E 5 7 30.15 1021 2 2 0.08 2.03
4:53 pm 16:53 Cloudy with Rain 48 8.9 47 8.3 96 96 ESE 3 6 30.14 1021 1 2 0.22 5.59
5:53 pm 17:53 Cloudy with Rain 48 8.9 48 8.9 100 100 VRB 5 7 30.14 1021 1 2 0.16 4.06
5:58 pm 17:58 Cloudy with Rain 48 8.9 48 8.9 100 100 VRB 7 11 30.13 1020 2 3 0.01 0.25
6:05 pm 18:05 Cloudy with Rain 49 9.4 48 8.9 97 97 ESE 3 6 30.12 1020 3 4 0.04 1.02
6:37 pm 18:37 Cloudy with Heavy Rain 49 9.4 49 9.4 100 100 VRB 3 6 30.12 1020 2 3 0.29 7.37
6:53 pm 18:53 Cloudy with Heavy Rain 50 10 49 9.4 96 96 VRB 3 6 30.12 1020 2 3 0.39 9.91
7:01 pm 19:01 Cloudy with Heavy Rain 50 10 50 10 100 100 WNW 17 28 30.15 1021 2 3 0.07 1.78
7:46 pm 19:46 Cloudy with Rain 51 10.6 51 10.6 100 100 SE 10 17 30.15 1021 3 5 0.41 10.41
7:53 pm 19:53 Cloudy with Rain 52 11.1 51 10.6 97 97 SE 8 13 30.14 1021 3 5 0.43 10.92
8:00 pm 20:00 Cloudy with Light Rain 52 11.1 52 11.1 100 100 Calm 30.16 1021 5 8 0.01 0.25
8:31 pm 20:31 Cloudy with Light Rain 52 11.1 52 11.1 100 100 E 3 6 30.14 1021 2 3 0.04 1.02
8:53 pm 20:53 Cloudy with Light Rain 53 11.7 52 11.1 96 96 Calm 30.14 1021 2 3 0.05 1.27
9:00 pm 21:00 Cloudy with Light Rain 53 11.7 53 11.7 100 100 Calm 30.13 1020 9 14 0.01 0.25
9:24 pm 21:24 Cloudy with Light Rain 52 11.1 52 11.1 100 100 VRB 3 6 30.13 1020 2 3 0.02 0.51
9:33 pm 21:33 Cloudy with Light Rain 53 11.7 52 11.1 96 96 Calm 30.12 1020 9 14 0.02 0.51
9:53 pm 21:53 Cloudy 52 11.1 52 11.1 100 100 E 3 6 30.13 1020 9 14 0.02 0.51
10:53 pm 22:53 Cloudy with Light Rain 52 11.1 52 11.1 100 100 Calm 30.13 1020 4 6 0.01 0.25
10:58 pm 22:58 Cloudy with Light Rain 51 10.6 51 10.6 100 100 ENE 3 6 30.11 1020 2 3 0.01 0.25
11:07 pm 23:07 Cloudy with Light Rain 52 11.1 52 11.1 100 100 Calm 30.12 1020 3 5 0.02 0.51
11:21 pm 23:21 Cloudy with Light Rain 53 11.7 52 11.1 96 96 E 3 6 30.10 1019 6 10 0.03 0.76
11:41 pm 23:41 Cloudy with Light Rain 53 11.7 52 11.1 96 96 ESE 5 7 30.11 1020 7 11 0.04 1.02
11:48 pm 23:48 Cloudy with Light Rain 52 11 52 11 100 100 Calm 30.11 1020 2 3 0.04 1.02
11:53 pm 23:53 Cloudy with Light Rain 53 11.7 52 11.1 96 96 VRB 3 6 30.11 1020 2 3 0.05 1.27
11:56 pm 23:56 Cloudy with Light Rain 53 11.7 52 11.1 96 96 E 3 6 30.09 1019 4 6 0.00 0.00

Powered by AerisWeather